#timestamp,LO_Frequency,Hit,StdDev 
1506326415.7,286047003.5,N
1506326435.5,286047001.5,N
1506326455.3,286047003.4,N
1506326475.2,286047002.7,N
1506326495.9,286046999.8,N
1506326515.7,286047002.0,N
1506326535.6,286046998.7,N
1506326555.4,286046997.6,N
1506326575.2,286046994.9,N
1506326595.1,286046995.2,N
1506326596.0,286046995.2,N
1506326615.8,286046997.2,N
1506326635.6,286046996.7,N
1506326655.4,286046996.7,N
1506326675.3,286046998.9,N
1506326695.1,286046997.6,N
1506326715.8,286046998.7,N
1506326735.7,286046999.3,N
1506326755.5,286046995.0,N
1506326775.3,286046997.5,N
1506326795.2,286046998.4,N
1506326815.9,286046996.1,N
1506326835.7,286046994.2,N
1506326855.6,286046994.8,N
1506326875.4,286046992.9,N
1506326895.2,286046992.6,N
1506326915.1,286046990.4,Y
1506326916.0,286046990.4,P
1506326935.8,286046992.1,N
1506326955.6,286046994.8,N
1506326975.5,286046993.8,N
1506326995.3,286046995.5,N
1506327015.1,286046999.2,N
1506327035.9,286046999.0,N
1506327055.7,286047001.0,N
1506327075.5,286046998.1,N
1506327095.3,286046998.0,N
1506327115.2,286046994.2,N
1506327135.0,286046994.3,N
1506327135.9,286046994.3,N
1506327155.7,286046990.7,Y
1506327175.6,286046994.2,P
1506327195.4,286046993.7,P
1506327215.2,286046993.6,P
1506327235.1,286046994.4,Y
1506327236.0,286046994.4,P
1506327255.8,286047000.5,P
1506327275.6,286047004.3,N
1506327295.5,286047002.2,N
1506327315.3,286047004.4,N
1506327335.1,286047001.7,N
1506327355.9,286047001.4,N
1506327375.7,286047005.6,N
1506327395.5,286047003.5,N
1506327415.4,286047003.5,N
1506327435.2,286047002.6,N
1506327455.0,286047002.2,N
1506327455.9,286047002.2,N
1506327475.8,286047001.6,N
1506327495.6,286046999.9,N
1506327515.4,286046997.0,N
1506327535.3,286046997.5,N
1506327555.1,286046993.5,N
1506327556.0,286046993.5,N
1506327575.8,286046997.7,N
1506327595.7,286047000.3,N
1506327615.5,286047001.1,N
1506327635.3,286046997.2,N
1506327655.1,286046998.5,N
1506327675.9,286046998.1,N
1506327695.7,286047000.0,N
1506327715.5,286047004.4,N
1506327735.4,286047003.5,N
1506327755.2,286047003.2,N
1506327775.0,286047004.0,N
1506327775.9,286047004.0,N
1506327795.8,286047005.6,N
1506327815.6,286047004.5,N
1506327835.4,286047004.9,N
1506327855.3,286047007.0,N
1506327875.1,286047007.3,N
1506327876.0,286047007.3,N
1506327895.8,286047003.1,N
1506327915.7,286047003.5,N
1506327935.5,286047004.0,N
1506327955.3,286047001.9,N
1506327975.2,286047001.7,N
1506327995.9,286047000.1,N
1506328015.7,286046998.1,N
1506328035.5,286046999.8,N
1506328055.4,286046999.7,N
1506328075.2,286047001.9,N
1506328095.0,286047001.3,N
1506328095.9,286047001.3,N
1506328115.8,286047000.9,N
1506328135.6,286047000.9,N
1506328155.4,286047001.1,N
1506328175.3,286047003.2,N
1506328195.1,286047002.6,N
1506328196.0,286047002.6,N
1506328215.8,286047004.9,N
1506328235.7,286047002.9,N
1506328255.5,286047004.9,N
1506328275.3,286047002.6,N
1506328295.2,286047001.9,N
1506328315.9,286046996.9,N
1506328335.7,286046995.8,N
1506328355.6,286046995.2,N
1506328375.4,286046997.8,N
1506328395.2,286046999.4,N
1506328415.0,286046999.1,N
1506328416.0,286046999.1,N
1506328435.8,286046999.9,N
1506328455.6,286047000.3,N
1506328475.4,286047001.2,N
1506328495.3,286046998.2,N
1506328515.1,286047000.8,N
1506328535.8,286046998.6,N
1506328555.7,286046998.9,N
1506328575.5,286046997.7,N
1506328595.3,286046997.9,N
1506328615.2,286046993.7,N
1506328635.9,286046996.2,N
1506328655.7,286046995.9,N
1506328675.6,286046996.1,N
1506328695.4,286046994.9,N
1506328715.2,286046995.1,N
1506328735.0,286046999.6,N
1506328736.0,286046999.6,N
1506328755.8,286046995.8,N
1506328775.6,286046994.9,N
1506328795.4,286046994.3,N
1506328815.3,286046996.0,N
1506328835.1,286046997.5,N
1506328855.8,286046995.0,N
1506328875.7,286046992.1,Y
1506328895.5,286046997.8,P
1506328915.3,286046996.7,P
1506328935.2,286047004.0,P
1506328955.9,286047001.4,N
1506328975.7,286047001.8,N
1506328995.6,286047000.6,N
1506329015.4,286046998.6,N
1506329035.2,286046999.9,N
1506329055.1,286047000.9,N
1506329056.0,286047000.9,N
1506329075.8,286046997.0,N
1506329095.6,286046999.6,N
1506329115.5,286046997.0,N
1506329135.3,286046999.2,N
1506329155.1,286047000.5,N
1506329175.8,286047000.6,N
1506329195.7,286047002.1,N
1506329215.5,286047002.3,N
1506329235.3,286047003.6,N
1506329255.2,286047004.8,N
1506329275.9,286047006.4,N
1506329295.7,286047004.0,N
1506329315.6,286047002.4,N
1506329335.4,286047005.0,N
1506329355.2,286047005.1,N
1506329375.1,286047003.2,N
1506329376.0,286047003.2,N
1506329395.8,286047001.4,N
1506329415.6,286047001.5,N
1506329435.5,286047001.0,N
1506329455.3,286047000.6,N
1506329475.1,286046998.4,N
1506329495.9,286046999.3,N
1506329515.7,286046997.1,N
1506329535.5,286046998.7,N
1506329555.3,286047001.0,N
1506329575.2,286047002.7,N
1506329595.0,286047001.0,N
1506329595.9,286047001.0,N
1506329615.7,286046999.9,N
1506329635.6,286047005.7,N
1506329655.4,286047004.0,N
1506329675.2,286047002.7,N
1506329695.1,286047004.4,N
1506329696.0,286047004.4,N
1506329715.8,286047001.8,N
1506329735.6,286047004.1,N
1506329755.5,286047005.9,N
1506329775.3,286047007.6,Y
1506329795.1,286047005.6,P
1506329815.9,286047000.3,N
1506329835.7,286047001.2,N
1506329855.5,286046999.0,N
1506329875.4,286046997.2,N
1506329895.2,286046998.6,N
1506329915.0,286046999.9,N
1506329915.9,286046999.9,N
1506329935.8,286046995.4,N
1506329955.6,286047002.4,N
1506329975.4,286047007.4,N
1506329995.3,286047000.3,N
